Location: Nelson
(41.2830°S, 173.2830°E)
Time: 05:32:27
(UTC+13:00)

Radarsat Rocket - Pass Details

Date: 29 September 2021
Orbit: 933 x 1492 km, 100.6° (Epoch: 23 October)

Event Time Altitude Azimuth Distance (km) Brightness Sun altitude
Rises 06:25:44 0° 30° (NNE) 4,582 7.8 -8.1°
Reaches altitude 10° 06:28:33 10° 33° (NNE) 3,629 7.3 -7.6°
Maximum altitude 06:37:06 66° 112° (ESE) 1,613 5.5 -6.0°
Drops below altitude 10° 06:45:26 10° 191° (S) 3,548 6.9 -4.5°
Sets 06:48:10 0° 193° (SSW) 4,476 7.4 -3.9°
